Regional Weather Roundup
Issued by NWS Kansas City/Pleasant Hill, MO

Home | Current Version | Previous Version | Text Only | Print | Product List | Glossary On
Versions: 1 2 3 4 5 6 7 8 9 10 11 12 13 14 15 16 17 18 19 20 21 22 23 24 25 26 27
000
ASUS43 KEAX 242310
RWREAX

WEATHER ROUNDUP FOR EASTERN KANSAS AND NORTHWEST MISSOURI
NATIONAL WEATHER SERVICE KANSAS CITY/PLEASANT HILL MO
500 PM CST TUE JAN 24 2017

KSZ040-057-103>105-MOZ028-029-037-043-250000-
...KANSAS CITY METROPOLITAN AREA...

CITY           SKY/WX    TMP DP  RH WIND       PRES   REMARKS
K.C. INTL      PTCLDY    49  37  63 E13       29.43F
K.C. DOWNTOWN  CLEAR     54  39  57 E9        29.42R
LEES SUMMIT    CLEAR     55  40  56 E6        29.43R
OLATHE - IXD   CLEAR     57  42  57 E12       29.41R
OLATHE - OJC   CLEAR     57  40  52 E7        29.41R
LAWRENCE       CLEAR     54  42  64 E10       29.40F

$$

MOZ001>008-011>017-020>025-030>033-038>040-044>046-053-054-250000-
...NORTHERN AND CENTRAL MISSOURI...

CITY           SKY/WX    TMP DP  RH WIND       PRES   REMARKS
ST. JOSEPH     CLEAR     46  39  76 E10       29.46F
MOSBY          CLEAR     48  37  66 E6        29.45F
WARRENSBURG    CLEAR     55  39  54 E9        29.43F
WHITEMAN AFB   CLEAR     55  41  59 SE8       29.43F
CLINTON        CLEAR     61  41  48 SE10      29.44F
SEDALIA        CLEAR     55  40  56 SE13      29.46F
WARSAW         NOT AVBL
CHILLICOTHE      N/A     45  37  73 E13G20    29.51S
KIRKSVILLE     CLEAR     39  33  79 E14       29.57F WCI  31

$$

MOZ041-047>049-056>058-063>065-088>090-097-250000-
...EASTERN AND SOUTHERN MISSOURI...

CITY           SKY/WX    TMP DP  RH WIND       PRES   REMARKS
ST. LOUIS INTL CLOUDY    50  35  56 SE21G26   29.66F
SPIRIT OF STL  PTCLDY    49  37  63 SE14G20   29.63F
COLUMBIA       CLEAR     52  37  56 SE14      29.52F
JEFFERSON CITY CLEAR     54  38  54 SE13      29.53F
ROLLA          LGT RAIN  54  37  52 SE17G28   29.55S
OSAGE BEACH    CLEAR     59  39  47 S15G21    29.51F
SPRINGFIELD    CLEAR     67  36  31 S23G30    29.50R
BRANSON        PTCLDY    64  37  36 S14       29.58R
JOPLIN         CLEAR     66  39  37 S24G31    29.47R
WEST PLAINS    CLEAR     55  40  56 S14G22    29.66R

$$

IAZ060-094-KSZ022-034>040-054-083-096-NEZ052-066-093-250000-
...KANSAS...SOUTHEAST NEBRASKA AND IOWA...

CITY           SKY/WX    TMP DP  RH WIND       PRES   REMARKS
TOPEKA         CLEAR     55  41  59 E7        29.39S
MANHATTAN      CLEAR     60  40  47 W6        29.38R
EMPORIA        CLEAR     63  39  41 W13       29.39R
CHANUTE        CLEAR     65  41  41 S18G25    29.41R
WICHITA        PTCLDY    51  37  58 NW22      29.44R
OMAHA          CLOUDY    35  28  75 E12       29.56R WCI  27
LINCOLN        MIX PCPN  34  32  92 NE9       29.53S FOG     WCI  27
FALLS CITY     CLOUDY    41  35  79 NE8       29.47R
LAMONI         CLOUDY    37  31  78 E10       29.55R WCI  30
DES MOINES     CLOUDY    33  30  88 E17G25    29.60F WCI  22

$$





USA.gov is the U.S. government's official web portal to all federal, state and local government web resources and services.